374  
ASUS43 KIND 211309  
RWRIN  
 
WEATHER ROUNDUP FOR INDIANA  
NATIONAL WEATHER SERVICE INDIANAPOLIS IN  
800 AM EST TUE NOV 21 2017  
 
NOTE: "FAIR" INDICATES FEW OR NO CLOUDS BELOW 12,000 FEET WITH NO  
SIGNIFICANT WEATHER AND/OR S TO VISIBILITY
.  
 
* - STATION DOES NOT REPORT WEATHER SUCH AS PRECIPITATION OR FOG.
 
 
+ - STATION NOT QUALITY CONTROLLED BY THE NATIONAL WEATHER SERVICE.  
USE DATA WITH CAUTION...ESPECIALLY DEWPOINT AND RELATIVE  
HUMIDITY OBSERVATIONS.  
 
INZ001>003-010>013-019-020-211400-  
NORTHWEST INDIANA  
 
CITY SKY/WX TMP DP RH WIND PRES REMARKS
 
GARY /AIRPORT/ MOCLDY 43 30 61 SW12G25 29.72R  
KNOX *+ CLEAR 37 30 75 SW15 29.75R WCI 28  
LA PORTE + CLEAR 37 30 75 SW13 29.73S WCI 29  
MICHIGAN CITY+ PTCLDY 37 30 75 SW12G18 29.72R WCI 30  
MONTICELLO + CLEAR 38 28 67 SW14 29.78S WCI 30  
RENSSELAER + CLEAR 37 27 65 SW16G23 29.76F WCI 28  
VALPARAISO CLEAR 39 31 72 SW14 29.73S WCI 31  
 

 
 
LMZ046-743>745-211400-  
SOUTHERN LAKE MICHIGAN  
 
STATION/POSITION TIME TEMP WIND PRES WAVE
 
AIR SEA DIR/SP/G HT  
(UTC) (F) (DEG/KT/KT) (MB) (FT)  
BURNS HARBOR 1240 42 200/ 20/ 25 1006.1R  
MICHIGAN CITY 1240 41 190/ 17/ 20 N/A  
 

 
 
INZ004-005-014>016-021>024-211400-  
NORTH CENTRAL INDIANA  
 
CITY SKY/WX TMP DP RH WIND PRES REMARKS
 
ELKHART CLEAR 41 28 60 SW9G17 29.72F  
GOSHEN CLEAR 38 27 64 SW14 29.73F WCI 30  
LOGANSPORT + CLEAR 36 30 80 SW13 29.81S WCI 27  
PERU/GRISSOM CLEAR 39 29 67 SW15G23 29.79S WCI 31  
ROCHESTER + CLEAR 41 30 65 S12 29.78R  
SOUTH BEND CLEAR 39 31 72 SW15 29.72S WCI 31  
WARSAW + CLEAR 39 28 65 SW7 29.75F WCI 34  
 

 
 
INZ006>009-017-018-025>027-211400-  
NORTHEAST INDIANA  
 
CITY SKY/WX TMP DP RH WIND PRES REMARKS
 
AUBURN + MOCLDY 41 28 60 SW10G18 29.77S  
FORT WAYNE PTCLDY 40 29 64 SW16 29.79F WCI 31  
HUNTINGTON + PTCLDY 39 27 60 SW10G16 29.79F WCI 32  
KENDALLVILLE + CLOUDY 39 29 67 SW13G18 29.75S WCI 32  
 

 
 
INZ028-029-035-036-043>045-051>053-211400-  
WEST CENTRAL INDIANA  
 
CITY SKY/WX TMP DP RH WIND PRES REMARKS
 
CRAWFORDSVL + PTCLDY 35 28 75 S14 N/A WCI 26  
GREENCASTLE + CLOUDY 37 27 65 S9 29.87S WCI 31  
LAFAYETTE CLOUDY 38 29 70 SW6 29.82S WCI 33  
TERRE HAUTE CLOUDY 38 27 64 S8 29.88S WCI 32  
 

 
 
INZ030>032-037>040-046>048-054>057-064-065-211400-  
CENTRAL INDIANA  
 
CITY SKY/WX TMP DP RH WIND PRES REMARKS
 
CP ATTERBURY + CLOUDY 41 27 56 SW8G17 29.91S  
COLUMBUS PTCLDY 39 25 56 S17 29.92S WCI 30  
FISHERS *+ MOCLDY 39 30 70 SW9 29.86F WCI 33  
FRANKFORT + CLOUDY 39 31 71 SW12G22 29.83S WCI 32  
INDIANAPOLIS CLOUDY 40 26 57 SW13 29.88S WCI 32  
-EAGLE CREEK CLOUDY 41 25 53 SW12G20 29.86S  
KOKOMO + PTCLDY 39 29 67 SW16 29.81F WCI 30  
MARION + CLOUDY 37 28 72 S14 29.83S WCI 28  
MT COMFORT *+ CLOUDY 39 30 70 S9 29.87S WCI 33  
SHELBYVILLE CLOUDY 39 26 59 S10 29.89S WCI 32  
ZIONSVILLE + CLOUDY 38 27 63 SW15 29.85F WCI 30  
 

 
 
INZ033-034-041-042-049-050-058-059-211400-  
EAST CENTRAL INDIANA  
 
CITY SKY/WX TMP DP RH WIND PRES REMARKS
 
MUNCIE CLOUDY 41 25 53 SW16G22 29.84S  
RICHMOND + CLOUDY 37 28 70 SW15G23 29.90S WCI 28  
 

 
 
INZ060-061-067>069-081>083-085>088-211400-  
SOUTHWEST INDIANA  
 
CITY SKY/WX TMP DP RH WIND PRES REMARKS
 
EVANSVILLE CLEAR 40 30 67 S9 29.97S WCI 34  
HUNTINGBURG + PTCLDY 40 29 64 S13 29.98R WCI 32  
WASHINGTON + CLOUDY 40 26 58 S18 29.92S WCI 31  
 

 
 
INZ062-063-066-070>080-084-089>092-211400-  
SOUTH CENTRAL AND SOUTHEAST INDIANA  
 
CITY SKY/WX TMP DP RH WIND PRES REMARKS
 
BEDFORD + CLOUDY 41 27 56 S12 29.93S  
BLOOMINGTON CLOUDY 41 26 55 SW13 29.90S  
MADISON *+ CLOUDY 39 27 60 S8 29.98S WCI 34  
NORTH VERNON + CLOUDY 39 27 60 S10 29.95S WCI 32  
 

 
 
 
 
CLICK HERE TO GO TO PREVIOUS BULLETINS.

The Nexlab IN Page Main Text Page